[[{"header":{"parameterUnit":"m.s-1","parameterCategory":1,"la1":30.2991,"la2":30.254,"lo1":-89.0895,"lo2":-89.0444,"dy":0.0017,"dx":0.0017,"nx":28,"ny":28,"refTime":"2024-04-26T21:00:00:Z","depth":0,"parameterNumber":2,"parameterNumberName":"U-component_of_WINDS"},"data":[0,0,0,0,0,0,0,0,0,0,0,0,0,0,0,0,0,0,0,0,0,0,0,0,0,0,0,0,0,0,0,0,0,0,0,0,0,0,0,0,0,0,0,0,0,0,0,0,0,0,0,0,0,0,0,0,0,0,-5.9508,-5.9509,0,-5.9528,-5.9528,-5.9528,-5.9455,-5.9453,-5.9451,-5.9449,-5.9466,-5.9468,-5.9471,0,0,0,0,0,0,0,0,0,0,0,0,0,-5.9406,-5.9409,-5.9508,-5.9509,-5.9509,-5.9528,-5.9528,-5.9528,-5.9456,-5.9453,-5.945,-5.9448,-5.9465,-5.9468,-5.9471,0,0,0,0,0,0,0,0,0,0,0,0,0,-5.9441,-5.9409,-5.9508,-5.9475,-5.9472,-5.9528,-5.9528,-5.9528,-5.9456,-5.9453,-5.945,-5.9447,-5.9464,-5.9468,-5.9471,-5.9559,0,0,-5.9483,-5.9484,0,0,0,0,0,0,0,0,-5.9439,-5.9445,-5.948,-5.9477,-5.9474,-5.9486,-5.9498,-5.9539,-5.9457,-5.9462,-5.9449,-5.9445,-5.9475,-5.9478,-5.9488,-5.956,-5.9561,-5.9483,-5.9485,-5.9487,-5.9488,0,0,0,0,0,0,0,-5.9437,-5.9443,-5.9516,-5.948,-5.9477,-5.9458,-5.946,-5.9506,-5.9486,-5.9461,-5.9456,-5.946,-5.9473,-5.9485,-5.9488,-5.9561,-5.9483,-5.9486,-5.9489,-5.949,-5.9705,-5.9708,0,0,0,0,0,0,-5.9439,-5.9442,-5.9515,-5.9516,-5.9448,-5.9463,-5.9464,-5.9485,-5.9486,-5.9483,-5.9462,-5.9456,-5.948,-5.9484,-5.9488,-5.9589,-5.9487,-5.949,-5.9492,-5.9701,-5.9705,-5.9709,0,0,0,0,0,0,-5.9437,-5.9446,-5.9514,-5.9478,-5.9485,-5.9468,-5.9492,-5.9487,-5.9499,-5.9486,-5.9482,-5.9478,-5.9478,-5.9483,-5.9542,-5.9589,-5.9492,-5.9495,-5.9697,-5.9702,-5.9707,-5.9793,0,0,0,0,0,0,-5.9434,-5.9446,-5.9479,-5.9479,-5.9487,-5.9569,-5.9495,-5.949,-5.9506,-5.9498,-5.95,-5.9497,-5.9476,-5.9537,-5.9546,-5.9592,-5.9498,-5.9693,-5.9699,-5.9706,-5.9786,-5.9801,-5.9814,0,0,0,0,0,-5.9431,-5.9503,-5.9481,-5.9491,-5.9529,-5.9571,-5.9576,-5.955,-5.951,-5.9543,-5.9535,-5.9497,-5.9584,-5.9544,-5.9553,-5.9601,-5.9689,-5.9698,-5.9705,-5.978,-5.9798,-5.9813,0,0,0,0,0,0,-5.9507,-5.9502,-5.9478,-5.9552,-5.9563,-5.9559,-5.9599,-5.957,-5.9592,-5.9583,-5.955,-5.9551,-5.9615,-5.9615,-5.957,-5.9686,-5.9629,-5.964,-5.9683,-5.97,-5.9714,-5.9711,-5.9501,0,0,0,0,0,-5.9533,-5.9569,-5.9562,-5.9628,-5.9634,-5.9617,-5.9634,-5.9614,-5.9623,-5.9627,-5.9623,-5.9633,-5.9662,-5.9682,-5.9708,-5.9787,-5.9786,-5.9825,-5.9839,-5.985,-5.9858,-5.9899,-5.9916,-5.9735,-5.9735,-5.9735,0,0,-5.9586,-5.9587,-5.9612,-5.9643,-5.9649,-5.9686,-5.9621,-5.9662,-5.9689,-5.9633,-5.9687,-5.9686,-5.9695,-5.9764,-5.9794,-5.9765,-5.9909,-5.986,-5.9869,-5.9871,-5.9909,-5.9926,-5.9941,-5.974,-5.9739,-5.9738,0,0,-5.97,-5.9706,-5.976,-5.9768,-5.9779,-5.9767,-5.978,-5.9781,-5.9778,-5.9833,-5.9791,-5.9823,-5.9874,-5.9882,-5.9892,-6.0012,-5.9977,-6.0022,-6.0092,-6.0132,-6.0146,-6.0158,-6.0198,-6.0214,-6.0031,-6.0031,-6.0031,0,-5.9763,-5.9818,-5.9792,-5.9837,-5.9851,-5.9804,-5.9858,-5.9867,-5.9885,-5.9896,-5.9864,-5.9928,-5.9931,-6.0,-6.0029,-6.0041,-6.0054,-6.0019,-6.0146,-6.0158,-6.0169,-6.0207,-6.0223,-6.0036,-6.0035,-6.0035,-6.0034,0,-5.9895,-5.9933,-5.9976,-5.9996,-6.0016,-6.0065,-6.0046,-6.0069,-6.0048,-6.0039,-6.0095,-6.0098,-6.0123,-6.0139,-6.0118,-6.0206,-6.0187,-6.0152,-6.0093,-6.0192,-6.0227,-6.0242,-6.0043,-6.0041,-6.004,-6.0039,0,0,-6.0054,-6.006,-6.0076,-6.0084,-6.0093,-6.0122,-6.017,-6.0196,-6.0215,-6.023,-6.0268,-6.0314,-6.0281,-6.0293,-6.0273,-6.0309,-6.0401,-6.0268,-6.0268,-6.029,-6.0495,-6.0519,-6.0537,-6.038,-6.0382,-6.0385,-6.0493,0,-6.0164,-6.0245,-6.0224,-6.0305,-6.0339,-6.0296,-6.0338,-6.0347,-6.0341,-6.0369,-6.0362,-6.0394,-6.0349,-6.0356,-6.039,-6.0383,-6.0441,-6.0375,-6.0412,-6.0414,-6.0408,-6.0555,-6.0581,-6.0684,-6.0507,-6.051,-6.0511,0,-6.0302,-6.0324,-6.0408,-6.0411,-6.0425,-6.0462,-6.0484,-6.0512,-6.0522,-6.0515,-6.053,-6.0504,-6.0549,-6.0494,-6.0556,-6.0512,-6.0526,-6.0525,-6.0529,-6.0528,-6.0466,-6.0556,-6.0716,-6.073,-6.0533,-6.0531,-6.053,0,-6.0407,-6.0457,-6.0513,-6.0522,-6.0528,-6.0555,-6.0559,-6.0566,-6.0583,-6.0603,-6.0613,-6.0638,-6.0651,-6.067,-6.065,-6.0612,-6.0715,-6.0658,-6.0708,-6.0709,-6.0729,-6.0727,-6.089,-6.0744,-6.0744,-6.0744,-6.0743,0,-6.053,-6.0583,-6.056,-6.0595,-6.0652,-6.0628,-6.0685,-6.0684,-6.0691,-6.0724,-6.069,-6.0721,-6.0695,-6.0724,-6.0709,-6.0761,-6.0768,-6.0762,-6.0757,-6.0764,-6.0764,-6.077,-6.0761,-6.0748,-6.0747,-6.0746,-6.0745,0,-6.0655,-6.0643,-6.0701,-6.0703,-6.0704,-6.0746,-6.0747,-6.0779,-6.0771,-6.0813,-6.0822,-6.0809,-6.0841,-6.0825,-6.0859,-6.0849,-6.0916,-6.0903,-6.0912,-6.0907,-6.0957,-6.0952,-6.1127,-6.1148,-6.0992,-6.0993,-6.0995,0,-6.0733,-6.0772,-6.0779,-6.0799,-6.0805,-6.0838,-6.0855,-6.0833,-6.0853,-6.0868,-6.0897,-6.0927,-6.0949,-6.1003,-6.0996,-6.1022,-6.1007,-6.1067,-6.101,-6.1015,-6.1004,-6.1001,-6.1004,-6.1077,-6.1079,-6.108,-6.1081,0,-6.0871,-6.0863,-6.089,-6.0916,-6.0938,-6.0956,-6.0972,-6.099,-6.0969,-6.0992,-6.1025,-6.1043,-6.1078,-6.1107,-6.1129,-6.1132,-6.1103,-6.11,-6.1112,-6.1117,-6.112,-6.1117,-6.094,-6.1095,-6.1094,-6.1093,-6.1092,-6.1091,-6.0973,-6.1005,-6.1015,-6.1046,-6.1056,-6.1072,-6.1101,-6.1098,-6.1126,-6.1152,-6.1138,-6.1177,-6.1186,-6.1213,-6.122,-6.1249,-6.1225,-6.1243,-6.1247,-6.1252,-6.1257,-6.1119,-6.1253,-6.1253,-6.1252,-6.1252,-6.1252,0,-6.1107,-6.1112,-6.1141,-6.1164,-6.1189,-6.1162,-6.1178,-6.1199,-6.1234,-6.1246,-6.1269,-6.1306,-6.1335,-6.1332,-6.1358,-6.1381,-6.1369,-6.1389,-6.1385,-6.1386,-6.1278,-6.1264,-6.1398,-6.1398,-6.1398,-6.1398,-6.1398,-6.1398,-6.118,-6.1233,-6.1227,-6.1285,-6.1289,-6.1326,-6.1338,-6.1352,-6.1361,-6.1405,-6.1429,-6.1427,-6.1432,-6.1459,-6.1483,-6.1482,-6.1491,-6.1516,-6.1509,-6.1408,-6.1393,-6.1379,-6.1365,-6.1519,-6.1519,-6.1613,-6.1614,-6.1615]},{"header":{"parameterUnit":"m.s-1","parameterCategory":1,"la1":30.2991,"la2":30.254,"lo1":-89.0895,"lo2":-89.0444,"dy":0.0017,"dx":0.0017,"nx":28,"ny":28,"refTime":"2024-04-26T21:00:00:Z","depth":0,"parameterNumber":3,"parameterNumberName":"V-component_of_WINDS"},"data":[0,0,0,0,0,0,0,0,0,0,0,0,0,0,0,0,0,0,0,0,0,0,0,0,0,0,0,0,0,0,0,0,0,0,0,0,0,0,0,0,0,0,0,0,0,0,0,0,0,0,0,0,0,0,0,0,0,0,5.2185,5.2185,0,5.2182,5.2182,5.2181,5.2119,5.2117,5.2116,5.2114,5.211,5.2111,5.2113,0,0,0,0,0,0,0,0,0,0,0,0,0,5.2137,5.2138,5.2185,5.2185,5.2184,5.2182,5.2182,5.2181,5.2119,5.2117,5.2115,5.2114,5.211,5.2111,5.2113,0,0,0,0,0,0,0,0,0,0,0,0,0,5.2148,5.2138,5.2185,5.2153,5.215,5.2182,5.2182,5.2181,5.212,5.2117,5.2115,5.2113,5.2109,5.2111,5.2113,5.2174,0,0,5.2119,5.212,0,0,0,0,0,0,0,0,5.2148,5.215,5.2158,5.2155,5.2152,5.2148,5.2163,5.2179,5.212,5.2131,5.2114,5.2111,5.2125,5.2125,5.213,5.2174,5.2174,5.212,5.2121,5.2122,5.2122,0,0,0,0,0,0,0,5.2147,5.215,5.2183,5.2158,5.2155,5.2139,5.2138,5.2166,5.2141,5.213,5.2126,5.2126,5.2123,5.2128,5.2129,5.2173,5.212,5.2121,5.2123,5.2124,5.2269,5.2271,0,0,0,0,0,0,5.215,5.2149,5.2183,5.2183,5.2144,5.2142,5.2141,5.2152,5.2141,5.2137,5.2128,5.2123,5.2126,5.2127,5.2129,5.22,5.2122,5.2124,5.2125,5.2266,5.2269,5.2272,0,0,0,0,0,0,5.215,5.2154,5.2183,5.2165,5.2168,5.2146,5.2158,5.2153,5.2158,5.214,5.2135,5.2138,5.2124,5.2126,5.2164,5.2199,5.2125,5.2127,5.2263,5.2267,5.2271,5.2342,0,0,0,0,0,0,5.2149,5.2154,5.2177,5.2166,5.2169,5.2218,5.216,5.2155,5.2162,5.2156,5.2148,5.2144,5.2122,5.2161,5.2166,5.22,5.2128,5.226,5.2265,5.2269,5.2336,5.2348,5.2358,0,0,0,0,0,5.2147,5.2196,5.2178,5.2182,5.2197,5.222,5.2222,5.2196,5.2165,5.2188,5.2176,5.2144,5.2195,5.2165,5.217,5.2206,5.2257,5.2263,5.2269,5.2332,5.2346,5.2357,0,0,0,0,0,0,5.221,5.2194,5.2174,5.2221,5.2223,5.221,5.2237,5.2212,5.2221,5.2215,5.2182,5.2181,5.2224,5.2219,5.2186,5.2265,5.222,5.2228,5.2266,5.228,5.229,5.229,5.213,0,0,0,0,0,5.223,5.2251,5.2235,5.2279,5.2281,5.2259,5.2268,5.2249,5.2249,5.2249,5.224,5.2241,5.2257,5.2268,5.2282,5.2336,5.2334,5.2363,5.2374,5.2383,5.2389,5.2418,5.2431,5.2291,5.2291,5.2291,0,0,5.227,5.2264,5.2278,5.2291,5.229,5.2312,5.226,5.2285,5.2301,5.2253,5.2287,5.2282,5.2281,5.2327,5.2347,5.2324,5.2428,5.239,5.2398,5.2399,5.2426,5.2439,5.2451,5.2295,5.2295,5.2294,0,0,5.2354,5.2352,5.2388,5.2389,5.2389,5.2374,5.2384,5.2375,5.2369,5.2404,5.2369,5.2388,5.2416,5.2417,5.2422,5.2511,5.2482,5.2516,5.2571,5.26,5.2611,5.2621,5.2652,5.2664,5.2523,5.2523,5.2523,0,5.2404,5.2436,5.241,5.2438,5.2445,5.2404,5.2441,5.2442,5.2447,5.2452,5.2427,5.2463,5.246,5.2506,5.2528,5.2533,5.2543,5.2516,5.2612,5.2621,5.263,5.2659,5.2671,5.2527,5.2527,5.2526,5.2526,0,5.2498,5.2521,5.255,5.2557,5.2567,5.26,5.2579,5.2592,5.2573,5.2562,5.2599,5.2594,5.2606,5.2616,5.2597,5.2661,5.2647,5.2618,5.2572,5.2648,5.2675,5.2686,5.2533,5.2531,5.253,5.2529,0,0,5.2618,5.2612,5.2624,5.2627,5.2625,5.2642,5.2674,5.2687,5.27,5.2705,5.273,5.2757,5.273,5.2736,5.2716,5.2742,5.2813,5.2709,5.2709,5.2728,5.2884,5.2905,5.2919,5.2795,5.2797,5.2798,5.2883,0,5.27,5.2753,5.2732,5.2787,5.2809,5.2772,5.2799,5.2801,5.2793,5.281,5.28,5.2819,5.2783,5.2786,5.2809,5.2799,5.2844,5.2793,5.2818,5.2819,5.2818,5.2933,5.2955,5.3036,5.2894,5.2896,5.2897,0,5.2801,5.2812,5.287,5.2867,5.2875,5.29,5.2911,5.2929,5.2931,5.2923,5.293,5.2906,5.2937,5.2893,5.2936,5.2902,5.2911,5.2908,5.2911,5.2911,5.2862,5.2936,5.3061,5.3073,5.2914,5.2912,5.2911,0,5.2884,5.2913,5.2952,5.2956,5.2952,5.2971,5.2971,5.2971,5.2981,5.2991,5.2997,5.3011,5.3018,5.3029,5.301,5.298,5.3055,5.301,5.3049,5.305,5.3065,5.3064,5.3193,5.3073,5.3073,5.3073,5.3073,0,5.2976,5.3013,5.2989,5.3013,5.3053,5.3029,5.307,5.3065,5.3066,5.3089,5.3057,5.3079,5.3052,5.3071,5.3056,5.3094,5.3098,5.3092,5.3087,5.3094,5.3095,5.3099,5.3092,5.3076,5.3075,5.3075,5.3074,0,5.3074,5.306,5.31,5.3094,5.3094,5.3124,5.3119,5.3141,5.3132,5.316,5.3166,5.315,5.3171,5.3154,5.3174,5.3164,5.3214,5.3202,5.3213,5.3209,5.325,5.3246,5.3384,5.3401,5.3272,5.3273,5.3274,0,5.3134,5.3162,5.316,5.3174,5.3175,5.3197,5.3208,5.3186,5.3198,5.3205,5.3226,5.3245,5.3258,5.3294,5.3284,5.33,5.3288,5.3335,5.329,5.3296,5.3288,5.3286,5.3289,5.3344,5.3345,5.3347,5.3348,0,5.3241,5.3233,5.325,5.3266,5.328,5.3291,5.3299,5.3312,5.329,5.3305,5.3327,5.3338,5.336,5.3379,5.3392,5.3391,5.3366,5.3363,5.3372,5.3379,5.3385,5.3382,5.3238,5.3359,5.3358,5.3357,5.3356,5.3356,5.3321,5.3345,5.3348,5.3369,5.3373,5.3382,5.3403,5.3397,5.3415,5.3432,5.3418,5.3445,5.3448,5.3463,5.3465,5.3486,5.3466,5.348,5.3484,5.3488,5.3493,5.3383,5.3488,5.3488,5.3487,5.3487,5.3487,0,5.3426,5.3428,5.3447,5.3461,5.3477,5.3454,5.3463,5.3478,5.3502,5.3508,5.3523,5.3549,5.3568,5.3561,5.3578,5.3595,5.3584,5.36,5.3598,5.3599,5.351,5.35,5.3609,5.3609,5.3609,5.3609,5.3609,5.3609,5.3483,5.3522,5.3515,5.3557,5.3557,5.3584,5.3591,5.3599,5.3604,5.3635,5.3651,5.3647,5.3648,5.3665,5.3681,5.3679,5.3686,5.3707,5.37,5.3617,5.3605,5.3593,5.3583,5.3709,5.3709,5.3787,5.3787,5.3788]}]]